Regional Weather Roundup
Issued by NWS Kansas City/Pleasant Hill, MO

Home | Current Version | Previous Version | Graphics & Text | Print | Product List | Glossary Off
Versions: 1 2 3 4 5 6 7 8 9 10 11 12 13 14 15 16 17 18 19 20 21 22 23 24 25 26 27 28

000
ASUS43 KEAX 241110
RWREAX

WEATHER ROUNDUP FOR EASTERN KANSAS AND NORTHWEST MISSOURI
NATIONAL WEATHER SERVICE KANSAS CITY/PLEASANT HILL MO
600 AM CDT SAT SEP 24 2016

KSZ040-057-103>105-MOZ028-029-037-043-241200-
...KANSAS CITY METROPOLITAN AREA...

CITY           SKY/WX    TMP DP  RH WIND       PRES   REMARKS
K.C. INTL      MOCLDY    70  64  81 S8        30.01S
K.C. DOWNTOWN  PTCLDY    74  65  73 S6        30.01R
LEES SUMMIT    MOCLDY    71  65  81 S8        30.03R
OLATHE - IXD   CLEAR     70  66  87 SE8       30.02S
OLATHE - OJC   CLEAR     67  64  90 S3        30.03R
LAWRENCE       PTCLDY    68  65  90 E9        30.00R

$$

MOZ001>008-011>017-020>025-030>033-038>040-044>046-053-054-241200-
...NORTHERN AND CENTRAL MISSOURI...

CITY           SKY/WX    TMP DP  RH WIND       PRES   REMARKS
ST. JOSEPH     CLEAR     70  65  84 S3        30.00S
MOSBY          MOSUNNY   70  64  83 SE6       30.02S
WHITEMAN AFB   CLEAR     68  68 100 S6        30.03R
CLINTON        CLEAR     66  66 100 CALM      30.04S FOG
SEDALIA        CLEAR     67  64  90 SE5       30.06R
WARSAW         NOT AVBL
CHILLICOTHE      N/A     69  65  86 VRB3      30.05R
KIRKSVILLE     CLEAR     65  62  90 SE5       30.08R

$$

MOZ041-047>049-056>058-063>065-088>090-097-241200-
...EASTERN AND SOUTHERN MISSOURI...

CITY           SKY/WX    TMP DP  RH WIND       PRES   REMARKS
ST. LOUIS INTL CLEAR     73  65  75 CALM      30.09R
SPIRIT OF STL  MOCLDY    65  65 100 CALM      30.08R FOG
COLUMBIA       CLEAR     68  66  93 E7        30.08R
JEFFERSON CITY CLEAR     65  64  97 SE3       30.07R FOG
ROLLA          CLEAR     67  65  93 S7        30.08S
OSAGE BEACH    CLEAR     66  64  93 SE3       30.08R
SPRINGFIELD    CLEAR     71  64  78 S8        30.07R
BRANSON        PTCLDY    66  66 100 CALM      30.10R
JOPLIN         CLEAR     72  67  84 CALM      30.04R
WEST PLAINS    CLEAR     64  61  90 CALM      30.12R

$$

IAZ060-094-KSZ022-034>040-054-083-096-NEZ052-066-093-241200-
...KANSAS...SOUTHEAST NEBRASKA AND IOWA...

CITY           SKY/WX    TMP DP  RH WIND       PRES   REMARKS
TOPEKA         PTCLDY    71  66  84 E3        29.99R
MANHATTAN      MOCLDY    74  67  78 S9        29.94S
EMPORIA        CLOUDY    72  67  84 S14       29.98S
CHANUTE        CLEAR     71  67  87 SE6       30.01R
WICHITA        PTCLDY    74  69  85 SE12      29.94S
OMAHA          PTCLDY    72  63  73 SE10      29.95S
LINCOLN        PTCLDY    72  64  76 SE10      29.93S
FALLS CITY     MOCLDY    69  65  86 SE8       29.97S
LAMONI         CLEAR     67  64  90 E5        30.04S
DES MOINES     PTCLDY    69  67  93 E9        30.04R FOG

$$





USA.gov is the U.S. government's official web portal to all federal, state and local government web resources and services.